Temp
10 11 11 11 10 10 11 12 12 12 12 12 12 12 12 12 12 12 11 11 12 11
10 10 10 10 10 10 10 11 11 11 11 11 11 12 12 11 11 10 11 11 11 10
9 10 9 10 10 10 10 10 10 11 10 10 10 10 10 10 10 10 10 10 9 9
9 9 9 9 9 9 10 9 10 10 10 10 10 10 10 10 10 10 10 10 10 9
9 10 9 9 9 9 9 9 9 9 9 9 9 9 9 9 9 9 9 8 8 8
9 9 9 9 9 9 9 9 9 9 9 9 9 9 8 8 8 8 8 7 8 7
9 10 9 9 9 9 9 9 9 8 8 9 9 8 8 8 7 7 7 7 7 6
10 9 9 9 9 9 9 9 9 9 9 8 8 8 8 8 8 7 7 7 7 7
9 9 9 9 9 9 9 8 9 8 9 8 8 8 8 8 8 7 6 6 7 7
9 9 9 8 8 8 8 8 8 8 8 8 8 8 8 7 7 7 7 7 6 6
8 8 8 8 7 7 7 7 7 7 7 7 7 7 7 7 7 6 6 6 5 5
7 7 7 7 6 7 7 7 7 6 6 6 6 6 6 6 6 5 5 5 5 5
7 7 6 6 6 6 6 6 6 6 6 6 6 6 6 6 5 4 4 4 4 3
5 6 5 6 6 5 5 4 4 4 4 4 4 4 4 4 4 4 3 4 4 3
Height
758 763 767 770 773 775 771 774 782 788 792 796 799 802 805 810 813 815 817 820 820 822
759 764 767 771 771 774 777 778 779 785 791 795 800 801 802 806 809 813 816 819 820 820
757 762 765 768 768 771 776 779 781 785 790 797 799 801 803 804 807 811 814 816 820 821
755 758 760 764 767 771 774 779 783 785 789 795 799 800 801 806 807 808 811 815 820 821
752 755 759 760 765 768 772 776 781 785 788 791 795 798 802 805 806 807 811 816 818 816
751 754 757 758 763 766 769 772 776 781 785 789 790 794 797 801 805 806 808 811 810 812
751 754 757 758 761 763 766 769 773 778 781 784 788 790 794 797 800 802 804 805 808 811
749 752 754 756 759 762 763 767 771 775 780 783 787 786 790 793 796 798 800 802 806 808
749 750 753 756 757 759 761 765 770 773 776 780 782 784 786 789 792 797 798 800 804 806
751 753 755 757 759 761 762 765 768 772 774 775 779 781 783 788 791 794 797 799 804 804
753 754 756 759 760 762 765 764 767 769 772 775 777 780 783 788 792 795 795 798 801 803
755 755 758 760 762 762 762 764 769 773 772 777 778 780 785 789 792 794 796 798 799 802
758 759 761 762 762 763 764 766 771 774 773 778 783 783 786 789 791 793 795 796 799 801
761 762 763 764 766 767 769 769 774 776 779 782 785 784 787 789 791 792 794 795 795 797
Wind_Speed
22 24 22 22 16 17 28 28 24 21 20 20 19 19 19 16 14 12 11 10 10 6
23 29 26 19 16 15 12 18 19 18 17 16 15 19 18 16 15 12 12 11 9 8
24 27 28 25 17 15 15 12 15 17 15 15 14 13 14 14 15 15 13 10 9 10
21 22 22 23 25 27 21 16 15 14 15 15 14 14 14 16 16 14 12 13 13 12
20 18 21 21 22 25 26 24 22 21 20 22 18 16 16 15 14 14 15 16 15 11
15 21 22 21 19 20 20 23 21 20 22 22 21 21 20 20 20 20 19 18 13 12
16 17 18 19 19 21 21 21 22 23 21 23 22 20 21 22 22 19 16 13 12 13
11 12 13 16 20 20 21 23 24 21 20 20 20 19 21 19 17 16 15 15 15 16
6 7 9 10 12 14 16 19 19 18 20 21 19 18 16 16 17 17 15 14 14 14
6 6 6 6 7 10 13 17 19 20 18 17 16 14 13 14 15 16 15 13 13 12
4 5 6 8 8 8 9 9 10 11 12 11 11 12 12 13 14 14 12 12 11 10
3 4 6 6 6 7 7 7 8 9 10 9 10 10 12 14 13 11 10 9 8 8
7 7 5 5 5 6 7 8 9 8 8 8 9 11 11 11 11 9 10 9 9 9
7 8 9 10 8 9 10 11 12 13 12 11 10 11 10 10 8 8 7 7 10 11
Wind_Direction
204 195 199 194 198 192 185 188 192 195 198 198 199 198 195 197 201 201 197 190 197 190
205 201 204 200 184 183 182 188 185 190 191 193 196 196 193 192 191 190 195 200 196 184
209 213 210 214 202 195 187 181 179 181 181 191 192 194 194 191 192 192 187 194 191 198
205 210 214 218 222 218 212 213 204 198 203 212 217 211 210 206 195 191 194 198 211 221
198 209 213 210 217 220 216 215 221 221 235 214 213 206 207 211 212 203 205 218 222 217
205 195 203 211 215 217 214 212 220 223 214 208 202 208 212 211 212 211 218 218 212 214
201 211 214 212 214 219 215 216 214 206 212 214 218 214 212 212 214 218 215 214 216 212
205 215 219 222 222 219 210 210 214 225 224 228 213 206 219 217 213 213 213 216 217 218
178 181 192 200 207 211 211 205 202 201 199 208 215 224 216 218 213 214 204 202 208 211
156 165 171 174 182 192 196 201 203 204 211 222 231 217 208 210 210 209 204 201 203 202
130 142 154 163 160 166 178 178 193 204 205 200 196 196 196 199 206 201 197 196 197 198
88 124 135 129 133 140 146 148 167 179 171 178 179 177 186 186 187 184 186 190 190 192
136 139 134 140 133 139 134 142 148 149 147 160 165 169 179 185 181 168 177 180 186 205
104 117 130 133 132 134 134 126 133 132 135 138 138 147 167 176 170 168 184 227 244 247